Time,TemperatureF,DewpointF,PressureIn,WindDirection,WindDirectionDegrees,WindSpeedMPH,WindSpeedGustMPH,Humidity,HourlyPrecipIn,Conditions,Clouds,dailyrainin,SolarRadiationWatts/m^2,SoftwareType,DateUTC
2013-07-17 00:03:00,75.3,71.0,30.25,SSW,207,0.0,-999.0,85,-99.99,,,0.00,0,weatherlink.com 1.10,2013-07-17 05:03:00,
2013-07-17 00:18:00,75.0,71.0,30.25,SSW,207,0.0,-999.0,86,-99.99,,,0.00,0,weatherlink.com 1.10,2013-07-17 05:18:00,
2013-07-17 00:33:00,74.7,71.0,30.24,SSW,207,0.0,-999.0,87,-99.99,,,0.00,0,weatherlink.com 1.10,2013-07-17 05:33:00,
2013-07-17 00:48:00,74.5,71.0,30.25,SSW,207,0.0,-999.0,87,-99.99,,,0.00,0,weatherlink.com 1.10,2013-07-17 05:48:00,
2013-07-17 01:03:00,74.3,71.0,30.24,SSW,207,0.0,-999.0,88,-99.99,,,0.00,0,weatherlink.com 1.10,2013-07-17 06:03:00,
2013-07-17 01:18:00,74.1,70.0,30.24,SSW,207,0.0,-999.0,88,-99.99,,,0.00,0,weatherlink.com 1.10,2013-07-17 06:18:00,
2013-07-17 01:33:00,73.9,70.0,30.24,SSW,207,0.0,-999.0,88,-99.99,,,0.00,0,weatherlink.com 1.10,2013-07-17 06:33:00,
2013-07-17 01:48:00,73.7,70.0,30.24,SSW,207,0.0,-999.0,89,-99.99,,,0.00,0,weatherlink.com 1.10,2013-07-17 06:48:00,
2013-07-17 02:03:00,73.5,70.0,30.23,SSW,207,0.0,-999.0,89,-99.99,,,0.00,0,weatherlink.com 1.10,2013-07-17 07:03:00,
2013-07-17 02:18:00,73.3,70.0,30.23,SSW,207,0.0,-999.0,90,-99.99,,,0.00,0,weatherlink.com 1.10,2013-07-17 07:18:00,
2013-07-17 02:33:00,73.2,70.0,30.23,SSW,207,0.0,-999.0,90,-99.99,,,0.00,0,weatherlink.com 1.10,2013-07-17 07:33:00,
2013-07-17 02:48:00,73.1,70.0,30.23,SSW,207,0.0,-999.0,90,-99.99,,,0.00,0,weatherlink.com 1.10,2013-07-17 07:48:00,
2013-07-17 03:03:00,72.9,70.0,30.23,SSW,207,0.0,-999.0,91,-99.99,,,0.00,0,weatherlink.com 1.10,2013-07-17 08:03:00,
2013-07-17 03:18:00,72.8,70.0,30.23,SSW,207,0.0,-999.0,91,-99.99,,,0.00,0,weatherlink.com 1.10,2013-07-17 08:18:00,
2013-07-17 03:33:00,72.6,70.0,30.23,SSW,207,0.0,-999.0,91,-99.99,,,0.00,0,weatherlink.com 1.10,2013-07-17 08:33:00,
2013-07-17 03:48:00,72.4,70.0,30.22,SSW,207,0.0,-999.0,91,-99.99,,,0.00,0,weatherlink.com 1.10,2013-07-17 08:48:00,
2013-07-17 04:03:00,72.3,70.0,30.23,SSW,207,0.0,-999.0,92,-99.99,,,0.00,0,weatherlink.com 1.10,2013-07-17 09:03:00,
2013-07-17 04:18:00,72.2,70.0,30.23,SSW,207,0.0,-999.0,92,-99.99,,,0.00,0,weatherlink.com 1.10,2013-07-17 09:18:00,
2013-07-17 04:33:00,72.0,70.0,30.23,SSW,207,0.0,-999.0,92,-99.99,,,0.00,0,weatherlink.com 1.10,2013-07-17 09:33:00,
2013-07-17 04:48:00,71.8,69.0,30.24,SSW,207,0.0,-999.0,92,-99.99,,,0.00,0,weatherlink.com 1.10,2013-07-17 09:48:00,
2013-07-17 05:03:00,71.5,69.0,30.24,SSW,207,0.0,-999.0,92,-99.99,,,0.00,0,weatherlink.com 1.10,2013-07-17 10:03:00,
2013-07-17 05:18:00,71.3,69.0,30.24,SSW,207,0.0,-999.0,92,-99.99,,,0.00,0,weatherlink.com 1.10,2013-07-17 10:18:00,
2013-07-17 05:33:00,71.2,69.0,30.25,SSW,207,0.0,-999.0,92,-99.99,,,0.00,0,weatherlink.com 1.10,2013-07-17 10:33:00,
2013-07-17 05:48:00,71.3,69.0,30.26,SSW,207,0.0,-999.0,93,-99.99,,,0.00,0,weatherlink.com 1.10,2013-07-17 10:48:00,
2013-07-17 06:03:00,71.2,69.0,30.26,SSW,207,0.0,-999.0,93,-99.99,,,0.00,0,weatherlink.com 1.10,2013-07-17 11:03:00,
2013-07-17 06:18:00,71.1,69.0,30.26,SSW,207,0.0,-999.0,93,-99.99,,,0.00,5,weatherlink.com 1.10,2013-07-17 11:18:00,
2013-07-17 06:33:00,71.1,69.0,30.26,SSW,207,0.0,-999.0,93,-99.99,,,0.00,7,weatherlink.com 1.10,2013-07-17 11:33:00,
2013-07-17 06:48:00,71.1,69.0,30.27,SSW,207,0.0,-999.0,93,-99.99,,,0.00,9,weatherlink.com 1.10,2013-07-17 11:48:00,
2013-07-17 07:03:00,71.2,69.0,30.27,SSW,207,0.0,-999.0,93,-99.99,,,0.00,12,weatherlink.com 1.10,2013-07-17 12:03:00,
2013-07-17 07:18:00,71.3,70.0,30.27,SSW,207,0.0,-999.0,94,-99.99,,,0.00,16,weatherlink.com 1.10,2013-07-17 12:18:00,
2013-07-17 07:33:00,72.0,70.0,30.28,SSW,207,0.0,-999.0,94,-99.99,,,0.00,19,weatherlink.com 1.10,2013-07-17 12:33:00,
2013-07-17 07:48:00,72.8,71.0,30.28,SSW,207,0.0,-999.0,95,-99.99,,,0.00,25,weatherlink.com 1.10,2013-07-17 12:48:00,
2013-07-17 08:05:00,73.4,72.0,30.29,SSW,207,0.0,-999.0,95,-99.99,,,0.00,30,weatherlink.com 1.10,2013-07-17 13:05:00,
2013-07-17 08:18:00,74.0,73.0,30.29,SSW,207,0.0,-999.0,95,-99.99,,,0.00,35,weatherlink.com 1.10,2013-07-17 13:18:00,
2013-07-17 08:33:00,74.7,73.0,30.29,SSW,207,0.0,-999.0,95,-99.99,,,0.00,42,weatherlink.com 1.10,2013-07-17 13:33:00,
2013-07-17 08:48:00,75.1,74.0,30.29,SSW,207,0.0,-999.0,96,-99.99,,,0.00,47,weatherlink.com 1.10,2013-07-17 13:48:00,
2013-07-17 09:03:00,75.6,74.0,30.29,SSW,207,0.0,-999.0,95,-99.99,,,0.00,236,weatherlink.com 1.10,2013-07-17 14:03:00,
2013-07-17 09:18:00,76.2,75.0,30.28,SSW,207,0.0,-999.0,95,-99.99,,,0.00,197,weatherlink.com 1.10,2013-07-17 14:18:00,
2013-07-17 09:33:00,76.8,75.0,30.28,SSW,207,0.0,-999.0,95,-99.99,,,0.00,397,weatherlink.com 1.10,2013-07-17 14:33:00,
2013-07-17 09:48:00,77.6,75.0,30.28,SW,225,0.0,-999.0,92,-99.99,,,0.00,90,weatherlink.com 1.10,2013-07-17 14:48:00,
2013-07-17 10:03:00,79.5,76.0,30.28,SW,225,0.0,-999.0,89,-99.99,,,0.00,91,weatherlink.com 1.10,2013-07-17 15:03:00,
2013-07-17 10:19:00,81.3,76.0,30.28,SW,225,0.0,-999.0,83,-99.99,,,0.00,97,weatherlink.com 1.10,2013-07-17 15:19:00,
2013-07-17 10:34:00,82.9,75.0,30.28,SW,225,0.0,-999.0,78,-99.99,,,0.00,105,weatherlink.com 1.10,2013-07-17 15:34:00,
2013-07-17 10:49:00,85.2,76.0,30.28,SW,219,0.0,-999.0,74,-99.99,,,0.00,218,weatherlink.com 1.10,2013-07-17 15:49:00,
2013-07-17 11:04:00,87.1,75.0,30.27,SW,219,0.0,-999.0,67,-99.99,,,0.00,135,weatherlink.com 1.10,2013-07-17 16:04:00,
2013-07-17 11:19:00,87.6,76.0,30.27,SW,219,0.0,-999.0,69,-99.99,,,0.00,179,weatherlink.com 1.10,2013-07-17 16:19:00,
2013-07-17 11:34:00,88.4,75.0,30.27,SW,219,0.0,-999.0,65,-99.99,,,0.00,842,weatherlink.com 1.10,2013-07-17 16:34:00,
2013-07-17 11:49:00,87.8,75.0,30.27,SW,219,0.0,-999.0,65,-99.99,,,0.00,561,weatherlink.com 1.10,2013-07-17 16:49:00,
2013-07-17 12:04:00,87.4,74.0,30.26,SW,219,0.0,-999.0,64,-99.99,,,0.00,214,weatherlink.com 1.10,2013-07-17 17:04:00,
2013-07-17 12:19:00,88.1,75.0,30.26,SW,219,0.0,-999.0,65,-99.99,,,0.00,181,weatherlink.com 1.10,2013-07-17 17:19:00,
2013-07-17 12:34:00,89.8,76.0,30.25,WNW,290,0.0,-999.0,63,-99.99,,,0.00,172,weatherlink.com 1.10,2013-07-17 17:34:00,
2013-07-17 12:49:00,89.2,76.0,30.25,SE,128,0.0,-999.0,65,-99.99,,,0.00,1060,weatherlink.com 1.10,2013-07-17 17:49:00,
2013-07-17 13:04:00,90.0,76.0,30.25,SE,129,0.0,-999.0,63,-99.99,,,0.00,1020,weatherlink.com 1.10,2013-07-17 18:04:00,
2013-07-17 13:19:00,91.0,76.0,30.24,SE,129,0.0,-999.0,62,-99.99,,,0.00,1051,weatherlink.com 1.10,2013-07-17 18:19:00,
2013-07-17 13:34:00,90.5,77.0,30.24,SE,130,0.0,-999.0,64,-99.99,,,0.00,1056,weatherlink.com 1.10,2013-07-17 18:34:00,
2013-07-17 13:49:00,92.1,76.0,30.23,South,188,0.0,-999.0,59,-99.99,,,0.00,909,weatherlink.com 1.10,2013-07-17 18:49:00,
2013-07-17 14:04:00,92.8,75.0,30.23,South,188,0.0,-999.0,57,-99.99,,,0.00,1018,weatherlink.com 1.10,2013-07-17 19:04:00,
2013-07-17 14:19:00,93.3,77.0,30.23,SSE,148,0.0,-999.0,60,-99.99,,,0.00,1072,weatherlink.com 1.10,2013-07-17 19:19:00,
2013-07-17 14:34:00,92.6,77.0,30.22,SSE,148,0.0,-999.0,60,-99.99,,,0.00,993,weatherlink.com 1.10,2013-07-17 19:34:00,
2013-07-17 14:49:00,93.0,75.0,30.22,SSW,192,0.0,-999.0,56,-99.99,,,0.00,937,weatherlink.com 1.10,2013-07-17 19:49:00,
2013-07-17 15:04:00,92.8,75.0,30.21,NNE,14,0.0,-999.0,57,-99.99,,,0.00,918,weatherlink.com 1.10,2013-07-17 20:04:00,
2013-07-17 15:19:00,92.9,76.0,30.20,NNE,14,0.0,-999.0,59,-99.99,,,0.00,914,weatherlink.com 1.10,2013-07-17 20:19:00,
2013-07-17 15:34:00,92.4,74.0,30.20,NNE,14,0.0,-999.0,56,-99.99,,,0.00,113,weatherlink.com 1.10,2013-07-17 20:34:00,
2013-07-17 15:49:00,88.3,76.0,30.19,NNE,14,0.0,-999.0,66,-99.99,,,0.00,123,weatherlink.com 1.10,2013-07-17 20:49:00,
2013-07-17 16:04:00,87.6,77.0,30.19,NNE,14,0.0,-999.0,70,-99.99,,,0.00,759,weatherlink.com 1.10,2013-07-17 21:04:00,
2013-07-17 16:19:00,89.7,78.0,30.18,NNE,14,0.0,-999.0,69,-99.99,,,0.00,686,weatherlink.com 1.10,2013-07-17 21:19:00,
2013-07-17 16:34:00,89.7,75.0,30.17,NNE,14,0.0,-999.0,62,-99.99,,,0.00,134,weatherlink.com 1.10,2013-07-17 21:34:00,
2013-07-17 16:50:00,88.5,77.0,30.16,NNE,14,0.0,-999.0,69,-99.99,,,0.00,109,weatherlink.com 1.10,2013-07-17 21:50:00,
2013-07-17 17:05:00,88.0,77.0,30.16,NNE,14,0.0,-999.0,69,-99.99,,,0.00,63,weatherlink.com 1.10,2013-07-17 22:05:00,
2013-07-17 17:20:00,88.3,76.0,30.16,NNE,14,0.0,-999.0,66,-99.99,,,0.00,65,weatherlink.com 1.10,2013-07-17 22:20:00,
2013-07-17 17:35:00,88.4,77.0,30.15,NNE,14,0.0,-999.0,68,-99.99,,,0.00,111,weatherlink.com 1.10,2013-07-17 22:35:00,
2013-07-17 17:50:00,88.1,76.0,30.15,NNE,14,0.0,-999.0,67,-99.99,,,0.00,62,weatherlink.com 1.10,2013-07-17 22:50:00,
2013-07-17 18:05:00,87.8,76.0,30.14,NNE,14,0.0,-999.0,68,-99.99,,,0.00,46,weatherlink.com 1.10,2013-07-17 23:05:00,
2013-07-17 18:20:00,87.3,76.0,30.14,NNE,14,0.0,-999.0,69,-99.99,,,0.00,28,weatherlink.com 1.10,2013-07-17 23:20:00,
2013-07-17 18:35:00,86.8,77.0,30.14,NNE,14,0.0,-999.0,72,-99.99,,,0.00,11,weatherlink.com 1.10,2013-07-17 23:35:00,
2013-07-17 18:50:00,86.1,77.0,30.14,NNE,14,0.0,-999.0,73,-99.99,,,0.00,9,weatherlink.com 1.10,2013-07-17 23:50:00,
2013-07-17 19:05:00,85.5,76.0,30.14,NNE,14,0.0,-999.0,74,-99.99,,,0.00,11,weatherlink.com 1.10,2013-07-18 00:05:00,
2013-07-17 19:20:00,84.9,77.0,30.15,NNE,14,0.0,-999.0,76,-99.99,,,0.00,26,weatherlink.com 1.10,2013-07-18 00:20:00,
2013-07-17 19:35:00,84.5,77.0,30.15,NNE,14,0.0,-999.0,77,-99.99,,,0.00,25,weatherlink.com 1.10,2013-07-18 00:35:00,
2013-07-17 19:50:00,84.1,76.0,30.15,NNE,14,0.0,-999.0,77,-99.99,,,0.00,16,weatherlink.com 1.10,2013-07-18 00:50:00,
2013-07-17 20:05:00,83.9,77.0,30.15,NNE,14,0.0,-999.0,79,-99.99,,,0.00,7,weatherlink.com 1.10,2013-07-18 01:05:00,
2013-07-17 20:20:00,83.6,77.0,30.16,NNE,14,0.0,-999.0,80,-99.99,,,0.00,0,weatherlink.com 1.10,2013-07-18 01:20:00,
2013-07-17 20:35:00,83.0,77.0,30.15,NNE,22,0.0,-999.0,81,-99.99,,,0.00,0,weatherlink.com 1.10,2013-07-18 01:35:00,
2013-07-17 20:50:00,82.2,76.0,30.16,NNE,22,0.0,-999.0,81,-99.99,,,0.00,0,weatherlink.com 1.10,2013-07-18 01:50:00,
2013-07-17 21:05:00,81.4,75.0,30.16,NNE,22,0.0,-999.0,81,-99.99,,,0.00,0,weatherlink.com 1.10,2013-07-18 02:05:00,
2013-07-17 21:20:00,80.8,75.0,30.16,NNE,22,0.0,-999.0,82,-99.99,,,0.00,0,weatherlink.com 1.10,2013-07-18 02:20:00,
2013-07-17 21:35:00,80.3,75.0,30.17,NNE,22,0.0,-999.0,84,-99.99,,,0.00,0,weatherlink.com 1.10,2013-07-18 02:35:00,
2013-07-17 21:50:00,79.8,75.0,30.17,NNE,22,0.0,-999.0,84,-99.99,,,0.00,0,weatherlink.com 1.10,2013-07-18 02:50:00,
2013-07-17 22:05:00,79.4,74.0,30.17,NNE,22,0.0,-999.0,84,-99.99,,,0.00,0,weatherlink.com 1.10,2013-07-18 03:05:00,
2013-07-17 22:20:00,79.2,75.0,30.17,NNE,22,0.0,-999.0,86,-99.99,,,0.00,0,weatherlink.com 1.10,2013-07-18 03:20:00,
2013-07-17 22:35:00,79.0,75.0,30.17,NNE,22,0.0,-999.0,87,-99.99,,,0.00,0,weatherlink.com 1.10,2013-07-18 03:35:00,
2013-07-17 22:50:00,78.7,75.0,30.17,NNE,22,0.0,-999.0,87,-99.99,,,0.00,0,weatherlink.com 1.10,2013-07-18 03:50:00,
2013-07-17 23:05:00,78.6,75.0,30.17,NNE,22,0.0,-999.0,88,-99.99,,,0.00,0,weatherlink.com 1.10,2013-07-18 04:05:00,
2013-07-17 23:20:00,78.3,75.0,30.17,NNE,22,0.0,-999.0,88,-99.99,,,0.00,0,weatherlink.com 1.10,2013-07-18 04:20:00,
2013-07-17 23:35:00,78.1,74.0,30.17,NNE,22,0.0,-999.0,88,-99.99,,,0.00,0,weatherlink.com 1.10,2013-07-18 04:35:00,
2013-07-17 23:50:00,78.0,75.0,30.18,NNE,22,0.0,-999.0,89,-99.99,,,0.00,0,weatherlink.com 1.10,2013-07-18 04:50:00,